Location: El Gallo
(32.4380°N, 116.9347°W)
Time: 20:33:36
(UTC+00:00)

Meteor 2-13 Rocket - Pass Details

Date: 01 October 2022
Orbit: 936 x 957 km, 82.5° (Epoch: 02 December)

Event Time Altitude Azimuth Distance (km) Brightness Sun altitude
Rises 12:22:22 0° 349° (N) 3,632 7.5 -17.6°
Reaches altitude 10° 12:24:53 10° 346° (NNW) 2,685 6.7 -17.0°
Maximum altitude 12:30:55 62° 267° (W) 1,071 4.4 -15.8°
Drops below altitude 10° 12:36:57 10° 188° (S) 2,678 6.7 -14.5°
Sets 12:39:28 0° 185° (S) 3,620 7.4 -14.0°
